When you browse on this site, cookies collect data to enhance your experience and personalize the content and advertising you see.
Visit our Privacy Policy to learn more. By continuing to use the site, you agree to this use of cookies and data.
  • Em Portugal
  • Lista de países
  • Para 7 dias
  • Temperatura da água
  • Mapas de satélite
  • Mapa do tempo
  • Widgets de tempo
  • user-avatar
    Iniciar Sessão

    Previsão horária em Lampeter

    Hoje, 20 Julho, Sábado

    Tempo Temperatura Precipitação Vento Pressão Humidade
    00:00 +15°C° 0 mm 2 m/s 744 mmHg 96%
    01:00 +15°C° 0 mm 1 m/s 744 mmHg 96%
    02:00 +15°C° 0 mm 1 m/s 743 mmHg 96%
    03:00 +15°C° 0 mm 1 m/s 743 mmHg 95%
    04:00 +16°C° 0 mm 2 m/s 743 mmHg 94%
    05:00 +16°C° 0 mm 2 m/s 743 mmHg 93%
    06:00 +16°C° 0 mm 1 m/s 743 mmHg 93%
    07:00 +17°C° 0.1 mm 2 m/s 744 mmHg 91%
    08:00 +18°C° 0.1 mm 2 m/s 744 mmHg 89%
    09:00 +18°C° 0.1 mm 3 m/s 744 mmHg 86%
    10:00 +18°C° 0.8 mm 3 m/s 744 mmHg 86%
    11:00 +19°C° 0.8 mm 3 m/s 745 mmHg 85%
    12:00 +19°C° 0.8 mm 4 m/s 745 mmHg 84%
    13:00 +19°C° 1.1 mm 4 m/s 746 mmHg 82%
    14:00 +20°C° 1.1 mm 5 m/s 746 mmHg 79%
    15:00 +20°C° 1.1 mm 5 m/s 747 mmHg 76%
    16:00 +20°C° 0.3 mm 5 m/s 748 mmHg 75%
    17:00 +19°C° 0.3 mm 5 m/s 748 mmHg 74%
    18:00 +19°C° 0.3 mm 5 m/s 749 mmHg 73%
    19:00 +16°C° 0 mm 5 m/s 749 mmHg 74%
    20:00 +15°C° 0 mm 4 m/s 750 mmHg 76%
    21:00 +13°C° 0 mm 4 m/s 751 mmHg 77%
    22:00 +13°C° 0 mm 4 m/s 752 mmHg 79%
    23:00 +12°C° 0 mm 3 m/s 752 mmHg 81%

    Amanhã, 21 Julho, Domingo

    Tempo Temperatura Precipitação Vento Pressão Humidade
    00:00 +12°C° 0 mm 3 m/s 753 mmHg 83%
    01:00 +11°C° 0 mm 3 m/s 753 mmHg 83%
    02:00 +11°C° 0 mm 3 m/s 753 mmHg 84%
    03:00 +11°C° 0 mm 3 m/s 753 mmHg 84%
    04:00 +12°C° 0 mm 3 m/s 753 mmHg 84%
    05:00 +13°C° 0 mm 2 m/s 753 mmHg 84%
    06:00 +14°C° 0 mm 2 m/s 753 mmHg 84%
    07:00 +16°C° 0 mm 3 m/s 754 mmHg 80%
    08:00 +17°C° 0 mm 3 m/s 754 mmHg 76%
    09:00 +18°C° 0 mm 4 m/s 754 mmHg 72%
    10:00 +18°C° 0.1 mm 4 m/s 755 mmHg 72%
    11:00 +18°C° 0.1 mm 4 m/s 755 mmHg 73%
    12:00 +19°C° 0.1 mm 5 m/s 755 mmHg 73%
    13:00 +17°C° 0 mm 5 m/s 755 mmHg 75%
    14:00 +17°C° 0 mm 5 m/s 755 mmHg 76%
    15:00 +17°C° 0 mm 5 m/s 755 mmHg 77%
    16:00 +16°C° 0.3 mm 5 m/s 754 mmHg 81%
    17:00 +15°C° 0.3 mm 4 m/s 754 mmHg 86%
    18:00 +16°C° 0.3 mm 3 m/s 753 mmHg 90%
    19:00 +15°C° 0.5 mm 4 m/s 753 mmHg 91%
    20:00 +15°C° 0.5 mm 4 m/s 752 mmHg 92%
    21:00 +15°C° 0.5 mm 4 m/s 752 mmHg 94%
    22:00 +16°C° 0.7 mm 5 m/s 752 mmHg 93%
    23:00 +16°C° 0.7 mm 6 m/s 751 mmHg 93%

    Depois de amanhã, 22 Julho, Segunda-feira

    Tempo Temperatura Precipitação Vento Pressão Humidade
    00:00 +17°C° 0.7 mm 7 m/s 750 mmHg 93%
    01:00 +17°C° 0.6 mm 7 m/s 750 mmHg 93%
    02:00 +18°C° 0.6 mm 8 m/s 750 mmHg 92%
    03:00 +18°C° 0.6 mm 8 m/s 750 mmHg 92%
    04:00 +18°C° 0 mm 8 m/s 750 mmHg 90%
    05:00 +18°C° 0 mm 8 m/s 750 mmHg 89%
    06:00 +18°C° 0 mm 8 m/s 750 mmHg 88%
    07:00 +18°C° 0.1 mm 8 m/s 751 mmHg 87%
    08:00 +18°C° 0.1 mm 8 m/s 751 mmHg 87%
    09:00 +18°C° 0.1 mm 8 m/s 752 mmHg 86%
    10:00 +18°C° 0 mm 8 m/s 752 mmHg 85%
    11:00 +20°C° 0 mm 8 m/s 752 mmHg 84%
    12:00 +20°C° 0 mm 8 m/s 753 mmHg 83%
    13:00 +20°C° 0 mm 8 m/s 753 mmHg 82%
    14:00 +21°C° 0 mm 8 m/s 753 mmHg 82%
    15:00 +21°C° 0 mm 8 m/s 753 mmHg 81%
    16:00 +21°C° 0 mm 7 m/s 754 mmHg 81%
    17:00 +21°C° 0 mm 7 m/s 754 mmHg 81%
    18:00 +21°C° 0 mm 7 m/s 754 mmHg 81%
    19:00 +20°C° 0 mm 6 m/s 755 mmHg 83%
    20:00 +20°C° 0 mm 6 m/s 755 mmHg 85%
    21:00 +19°C° 0 mm 6 m/s 756 mmHg 87%
    22:00 +17°C° 0 mm 5 m/s 756 mmHg 89%
    23:00 +18°C° 0 mm 4 m/s 756 mmHg 90%

    23 Julho, Terça-feira

    Tempo Temperatura Precipitação Vento Pressão Humidade
    00:00 +17°C° 0 mm 4 m/s 756 mmHg 92%
    01:00 +17°C° 0 mm 4 m/s 756 mmHg 93%
    02:00 +17°C° 0 mm 3 m/s 756 mmHg 93%
    03:00 +17°C° 0 mm 3 m/s 756 mmHg 93%
    04:00 +18°C° 0 mm 3 m/s 756 mmHg 92%
    05:00 +18°C° 0 mm 3 m/s 756 mmHg 91%
    06:00 +18°C° 0 mm 3 m/s 756 mmHg 89%
    07:00 +19°C° 0 mm 4 m/s 756 mmHg 85%
    08:00 +20°C° 0 mm 4 m/s 757 mmHg 81%
    09:00 +21°C° 0 mm 5 m/s 757 mmHg 77%
    10:00 +22°C° 0 mm 4 m/s 757 mmHg 74%
    11:00 +23°C° 0 mm 4 m/s 757 mmHg 71%
    12:00 +25°C° 0 mm 3 m/s 757 mmHg 68%
    13:00 +25°C° 0 mm 3 m/s 756 mmHg 68%
    14:00 +26°C° 0 mm 3 m/s 756 mmHg 67%
    15:00 +26°C° 0 mm 3 m/s 756 mmHg 66%
    16:00 +26°C° 0 mm 2 m/s 755 mmHg 68%
    17:00 +26°C° 0 mm 2 m/s 755 mmHg 71%
    18:00 +26°C° 0 mm 1 m/s 755 mmHg 73%
    19:00 +24°C° 0 mm 1 m/s 755 mmHg 78%
    20:00 +23°C° 0 mm 2 m/s 755 mmHg 83%
    21:00 +20°C° 0 mm 2 m/s 754 mmHg 88%
    22:00 +20°C° 0 mm 2 m/s 754 mmHg 89%
    23:00 +20°C° 0 mm 2 m/s 754 mmHg 89%

    24 Julho, Quarta-feira

    Tempo Temperatura Precipitação Vento Pressão Humidade
    00:00 +20°C° 0 mm 2 m/s 753 mmHg 90%
    01:00 +19°C° 0.6 mm 2 m/s 753 mmHg 91%
    02:00 +19°C° 0.6 mm 2 m/s 753 mmHg 92%
    03:00 +19°C° 0.6 mm 2 m/s 752 mmHg 93%
    04:00 +20°C° 0.6 mm 1 m/s 752 mmHg 93%
    05:00 +21°C° 0.6 mm 1 m/s 752 mmHg 93%
    06:00 +21°C° 0.6 mm 1 m/s 752 mmHg 92%
    07:00 +22°C° 0.9 mm 1 m/s 752 mmHg 90%
    08:00 +23°C° 0.9 mm 2 m/s 751 mmHg 88%
    09:00 +24°C° 0.9 mm 2 m/s 751 mmHg 85%
    10:00 +25°C° 0.1 mm 2 m/s 751 mmHg 80%
    11:00 +25°C° 0.1 mm 3 m/s 752 mmHg 74%
    12:00 +26°C° 0.1 mm 3 m/s 752 mmHg 69%
    13:00 +26°C° 0 mm 3 m/s 752 mmHg 69%
    14:00 +26°C° 0 mm 3 m/s 751 mmHg 70%
    15:00 +25°C° 0 mm 3 m/s 751 mmHg 70%
    16:00 +25°C° 0.1 mm 3 m/s 751 mmHg 73%
    17:00 +24°C° 0.1 mm 3 m/s 751 mmHg 76%
    18:00 +23°C° 0.1 mm 4 m/s 751 mmHg 79%
    19:00 +21°C° 0 mm 3 m/s 752 mmHg 83%
    20:00 +20°C° 0 mm 3 m/s 752 mmHg 86%
    21:00 +19°C° 0 mm 2 m/s 752 mmHg 89%
    22:00 +19°C° 0 mm 2 m/s 752 mmHg 90%
    23:00 +19°C° 0 mm 1 m/s 752 mmHg 90%

    25 Julho, Quinta-feira

    Tempo Temperatura Precipitação Vento Pressão Humidade
    00:00 +19°C° 0 mm 1 m/s 752 mmHg 91%
    01:00 +19°C° 0 mm 1 m/s 752 mmHg 91%
    02:00 +19°C° 0 mm 1 m/s 751 mmHg 91%
    03:00 +19°C° 0 mm 1 m/s 751 mmHg 90%
    04:00 +19°C° 0 mm 1 m/s 751 mmHg 90%
    05:00 +19°C° 0 mm 2 m/s 751 mmHg 89%
    06:00 +19°C° 0 mm 2 m/s 750 mmHg 89%
    07:00 +20°C° 0 mm 3 m/s 750 mmHg 87%
    08:00 +21°C° 0 mm 3 m/s 749 mmHg 86%
    09:00 +22°C° 0 mm 4 m/s 749 mmHg 85%
    10:00 +22°C° 0.5 mm 3 m/s 749 mmHg 86%
    11:00 +23°C° 0.5 mm 2 m/s 749 mmHg 88%
    12:00 +23°C° 0.5 mm 2 m/s 749 mmHg 90%
    13:00 +23°C° 0.2 mm 2 m/s 749 mmHg 86%
    14:00 +24°C° 0.2 mm 2 m/s 748 mmHg 83%
    15:00 +25°C° 0.2 mm 3 m/s 748 mmHg 80%
    16:00 +24°C° 8.1 mm 3 m/s 748 mmHg 85%
    17:00 +22°C° 8.1 mm 3 m/s 747 mmHg 91%
    18:00 +20°C° 8.1 mm 4 m/s 747 mmHg 96%
    19:00 +20°C° 0.4 mm 3 m/s 747 mmHg 96%
    20:00 +19°C° 0.4 mm 2 m/s 747 mmHg 96%
    21:00 +19°C° 0.4 mm 2 m/s 747 mmHg 96%
    22:00 +18°C° 0.1 mm 2 m/s 747 mmHg 93%
    23:00 +17°C° 0.1 mm 2 m/s 748 mmHg 90%
    Mostrar mais